TCW22 SAWH-SCRM

Flight info

Callsign TCW22
Flight time 1h 22m
Altitude 39000
Route D093N DCT KRILL DCT PAMES DCT VUDOR
Aircraft A20N/M-SDE2E3FGHIRWXY/LB1

Departure

Time 2026-05-06 22:40
Airport Ushuaia - Malvinas Argentinas International Airport (SAWH)

Arrival

Time 2026-05-07 00:02
Airport Teniente Rodolfo Marsh Martin Airport (SCRM)
Time Latitude Longitude Altitude Speed Heading
2026-05-06 22:25 -54.84025 -68.31250 82 ft 0 kts 20°
2026-05-06 22:32 -54.84029 -68.31253 82 ft 1 kts 20°
2026-05-06 22:32 -54.84037 -68.31257 88 ft 1 kts 14°
2026-05-06 22:32 -54.84045 -68.31261 88 ft 1 kts
2026-05-06 22:32 -54.84055 -68.31262 84 ft 2 kts
2026-05-06 22:33 -54.84070 -68.31265 86 ft 2 kts 20°
2026-05-06 22:33 -54.84083 -68.31277 87 ft 2 kts 37°
2026-05-06 22:33 -54.84094 -68.31294 84 ft 2 kts 54°
2026-05-06 22:33 -54.84095 -68.31296 84 ft 0 kts 56°
2026-05-06 22:34 -54.84094 -68.31294 84 ft 1 kts 56°
2026-05-06 22:34 -54.84090 -68.31277 85 ft 2 kts 71°
2026-05-06 22:35 -54.84090 -68.31227 83 ft 7 kts 90°
2026-05-06 22:35 -54.84090 -68.31085 82 ft 16 kts 90°
2026-05-06 22:35 -54.84145 -68.30975 84 ft 13 kts 176°
2026-05-06 22:35 -54.84243 -68.30965 84 ft 15 kts 177°
2026-05-06 22:36 -54.84289 -68.30961 87 ft 0 kts 177°
2026-05-06 22:37 -54.84291 -68.30961 86 ft 2 kts 177°
2026-05-06 22:37 -54.84356 -68.30947 84 ft 15 kts 154°
2026-05-06 22:37 -54.84376 -68.30749 82 ft 25 kts 94°
2026-05-06 22:38 -54.84356 -68.30235 80 ft 58 kts 86°
2026-05-06 22:38 -54.84328 -68.29503 85 ft 60 kts 85°
2026-05-06 22:38 -54.84319 -68.28801 81 ft 51 kts 94°
2026-05-06 22:38 -54.84304 -68.28679 84 ft 0 kts 36°
2026-05-06 22:39 -54.84278 -68.28714 82 ft 6 kts 292°
2026-05-06 22:39 -54.84307 -68.28940 85 ft 57 kts 265°
2026-05-06 22:39 -54.84353 -68.30106 83 ft 134 kts 266°
2026-05-06 22:39 -54.84428 -68.32066 293 ft 183 kts 266°
2026-05-06 22:40 -54.84501 -68.34262 1101 ft 182 kts 266°
2026-05-06 22:40 -54.84586 -68.36400 2211 ft 176 kts 264°
2026-05-06 22:40 -54.84869 -68.38457 3120 ft 178 kts 239°
2026-05-06 22:40 -54.85680 -68.40149 3748 ft 191 kts 216°
2026-05-06 22:41 -54.88494 -68.40574 4367 ft 244 kts 154°
2026-05-06 22:41 -54.89851 -68.38647 4945 ft 260 kts 126°
2026-05-06 22:41 -54.90551 -68.35740 5862 ft 269 kts 101°
2026-05-06 22:42 -54.90498 -68.32360 6413 ft 291 kts 76°
2026-05-06 22:42 -54.89876 -68.29043 7549 ft 282 kts 71°
2026-05-06 22:42 -54.89268 -68.25918 8963 ft 270 kts 75°
2026-05-06 22:42 -54.88929 -68.22645 9657 ft 285 kts 86°
2026-05-06 22:43 -54.88888 -68.19139 10410 ft 290 kts 90°
2026-05-06 22:43 -54.88946 -68.15575 11062 ft 304 kts 93°
2026-05-06 22:43 -54.89090 -68.11820 11369 ft 327 kts 94°
2026-05-06 22:43 -54.89251 -68.07707 11791 ft 344 kts 94°
2026-05-06 22:44 -54.89389 -68.03590 12574 ft 348 kts 93°
2026-05-06 22:44 -54.89511 -67.99351 13373 ft 353 kts 92°
2026-05-06 22:44 -54.89646 -67.95055 14130 ft 358 kts 97°
2026-05-06 22:44 -54.90374 -67.90912 14794 ft 363 kts 118°
2026-05-06 22:45 -54.91913 -67.87420 15431 ft 368 kts 139°
2026-05-06 22:45 -54.94047 -67.84904 16060 ft 373 kts 152°
2026-05-06 22:45 -54.96379 -67.82817 16676 ft 379 kts 155°
2026-05-06 22:45 -54.98768 -67.80779 17313 ft 386 kts 155°
2026-05-06 22:46 -55.01184 -67.78665 17940 ft 392 kts 154°
2026-05-06 22:46 -55.03625 -67.76459 18523 ft 398 kts 153°
2026-05-06 22:46 -55.06083 -67.74185 19142 ft 401 kts 153°
2026-05-06 22:46 -55.08558 -67.71869 19679 ft 406 kts 153°
2026-05-06 22:47 -55.11055 -67.69521 20303 ft 409 kts 153°
2026-05-06 22:47 -55.13569 -67.67153 20901 ft 413 kts 153°
2026-05-06 22:47 -55.16110 -67.64758 21491 ft 416 kts 153°
2026-05-06 22:47 -55.18634 -67.62375 22066 ft 419 kts 153°
2026-05-06 22:48 -55.21219 -67.59932 22650 ft 423 kts 153°
2026-05-06 22:48 -55.23820 -67.57469 23220 ft 426 kts 153°
2026-05-06 22:48 -55.26441 -67.54984 23753 ft 430 kts 153°
2026-05-06 22:48 -55.29088 -67.52468 24241 ft 433 kts 152°
2026-05-06 22:49 -55.31734 -67.49949 24789 ft 433 kts 153°
2026-05-06 22:49 -55.34391 -67.47414 25227 ft 436 kts 153°
2026-05-06 22:49 -55.37070 -67.44855 25668 ft 439 kts 152°
2026-05-06 22:49 -55.39753 -67.42288 26095 ft 442 kts 152°
2026-05-06 22:50 -55.42437 -67.39717 26526 ft 445 kts 152°
2026-05-06 22:50 -55.45185 -67.37080 26950 ft 448 kts 152°
2026-05-06 22:50 -55.47927 -67.34445 27356 ft 451 kts 152°
2026-05-06 22:50 -55.50693 -67.31782 27752 ft 453 kts 152°
2026-05-06 22:51 -55.53469 -67.29106 28149 ft 456 kts 152°
2026-05-06 22:51 -55.56237 -67.26432 28543 ft 458 kts 152°
2026-05-06 22:51 -55.59040 -67.23721 28905 ft 461 kts 152°
2026-05-06 22:51 -55.61820 -67.21027 29249 ft 463 kts 152°
2026-05-06 22:52 -55.64665 -67.18266 29584 ft 466 kts 152°
2026-05-06 22:52 -55.67525 -67.15486 29938 ft 468 kts 152°
2026-05-06 22:52 -55.70394 -67.12693 30242 ft 471 kts 152°
2026-05-06 22:52 -55.73270 -67.09888 30533 ft 473 kts 152°
2026-05-06 22:53 -55.76123 -67.07100 30818 ft 475 kts 152°
2026-05-06 22:53 -55.79027 -67.04258 31150 ft 476 kts 152°
2026-05-06 22:53 -55.81938 -67.01403 31505 ft 477 kts 152°
2026-05-06 22:53 -55.84852 -66.98540 31878 ft 476 kts 152°
2026-05-06 22:54 -55.87752 -66.95687 32245 ft 476 kts 152°
2026-05-06 22:54 -55.90653 -66.92828 32612 ft 476 kts 152°
2026-05-06 22:54 -55.93517 -66.90001 32977 ft 476 kts 152°
2026-05-06 22:54 -55.96410 -66.87139 33317 ft 475 kts 152°
2026-05-06 22:55 -55.99302 -66.84274 33667 ft 475 kts 152°
2026-05-06 22:55 -56.02197 -66.81401 34035 ft 474 kts 152°
2026-05-06 22:55 -56.05090 -66.78525 34325 ft 473 kts 152°
2026-05-06 22:55 -56.07933 -66.75693 34587 ft 473 kts 152°
2026-05-06 22:56 -56.10804 -66.72829 34861 ft 472 kts 152°
2026-05-06 22:56 -56.13673 -66.69963 35124 ft 472 kts 152°
2026-05-06 22:56 -56.16543 -66.67090 35382 ft 471 kts 153°
2026-05-06 22:56 -56.19404 -66.64222 35620 ft 471 kts 153°
2026-05-06 22:57 -56.22269 -66.61345 35852 ft 470 kts 153°
2026-05-06 22:57 -56.25124 -66.58473 36112 ft 470 kts 153°
2026-05-06 22:57 -56.27974 -66.55600 36385 ft 468 kts 153°
2026-05-06 22:57 -56.30816 -66.52730 36610 ft 468 kts 153°
2026-05-06 22:58 -56.33618 -66.49896 36812 ft 468 kts 153°
2026-05-06 22:58 -56.36461 -66.47017 37008 ft 468 kts 153°
2026-05-06 22:58 -56.39296 -66.44141 37214 ft 467 kts 153°
2026-05-06 22:58 -56.42136 -66.41254 37404 ft 467 kts 153°
2026-05-06 22:59 -56.44973 -66.38366 37596 ft 467 kts 153°
2026-05-06 22:59 -56.47806 -66.35477 37782 ft 466 kts 153°
2026-05-06 22:59 -56.50600 -66.32622 37963 ft 466 kts 153°
2026-05-06 22:59 -56.53424 -66.29732 38128 ft 466 kts 153°
2026-05-06 23:00 -56.56242 -66.26843 38313 ft 466 kts 153°
2026-05-06 23:00 -56.59067 -66.23941 38446 ft 466 kts 153°
2026-05-06 23:00 -56.61898 -66.21029 38596 ft 466 kts 153°
2026-05-06 23:00 -56.64717 -66.18124 38730 ft 466 kts 153°
2026-05-06 23:01 -56.67539 -66.15211 38852 ft 465 kts 153°
2026-05-06 23:01 -56.70319 -66.12337 38964 ft 465 kts 153°
2026-05-06 23:01 -56.73127 -66.09428 38987 ft 464 kts 153°
2026-05-06 23:02 -56.78690 -66.03649 39008 ft 458 kts 153°
2026-05-06 23:02 -56.84256 -65.97850 39003 ft 460 kts 153°
2026-05-06 23:03 -56.89827 -65.92025 39004 ft 460 kts 153°
2026-05-06 23:03 -56.95341 -65.86238 38999 ft 460 kts 153°
2026-05-06 23:04 -57.00893 -65.80391 38996 ft 459 kts 153°
2026-05-06 23:04 -57.06432 -65.74538 38976 ft 457 kts 153°
2026-05-06 23:05 -57.11937 -65.68700 38964 ft 456 kts 153°
2026-05-06 23:05 -57.17427 -65.62860 38983 ft 457 kts 153°
2026-05-06 23:06 -57.22926 -65.56990 38976 ft 460 kts 153°
2026-05-06 23:06 -57.28451 -65.51069 38974 ft 458 kts 153°
2026-05-06 23:07 -57.33966 -65.45140 38966 ft 459 kts 153°
2026-05-06 23:07 -57.39463 -65.39208 38966 ft 459 kts 153°
2026-05-06 23:08 -57.44977 -65.33238 38957 ft 459 kts 152°
2026-05-06 23:08 -57.50501 -65.27235 38949 ft 459 kts 152°
2026-05-06 23:09 -57.55085 -65.22239 38948 ft 459 kts 152°
2026-05-06 23:09 -57.61486 -65.15237 38935 ft 459 kts 152°
2026-05-06 23:10 -57.66993 -65.09189 38937 ft 459 kts 152°
2026-05-06 23:10 -57.71572 -65.04144 38929 ft 459 kts 152°
2026-05-06 23:11 -57.77081 -64.98055 38928 ft 459 kts 152°
2026-05-06 23:11 -57.82593 -64.91939 38925 ft 460 kts 152°
2026-05-06 23:12 -57.88083 -64.85812 38919 ft 463 kts 152°
2026-05-06 23:12 -57.93621 -64.79637 38911 ft 462 kts 152°
2026-05-06 23:13 -57.99132 -64.73462 38914 ft 461 kts 152°
2026-05-06 23:13 -58.04648 -64.67254 38914 ft 461 kts 152°
2026-05-06 23:14 -58.10163 -64.61025 38915 ft 461 kts 152°
2026-05-06 23:14 -58.15676 -64.54775 38916 ft 461 kts 152°
2026-05-06 23:15 -58.21179 -64.48512 38920 ft 462 kts 152°
2026-05-06 23:15 -58.26660 -64.42253 38923 ft 462 kts 152°
2026-05-06 23:16 -58.32165 -64.35943 38925 ft 462 kts 152°
2026-05-06 23:16 -58.37654 -64.29628 38926 ft 462 kts 152°
2026-05-06 23:17 -58.43148 -64.23284 38933 ft 461 kts 152°
2026-05-06 23:17 -58.48658 -64.16898 38931 ft 461 kts 152°
2026-05-06 23:18 -58.54109 -64.10557 38930 ft 461 kts 152°
2026-05-06 23:18 -58.59591 -64.04156 38934 ft 461 kts 152°
2026-05-06 23:19 -58.65039 -63.97772 38941 ft 461 kts 152°
2026-05-06 23:19 -58.70504 -63.91344 38952 ft 460 kts 152°
2026-05-06 23:20 -58.75981 -63.84877 38954 ft 460 kts 151°
2026-05-06 23:20 -58.81435 -63.78413 38946 ft 460 kts 151°
2026-05-06 23:21 -58.86860 -63.71960 38945 ft 460 kts 151°
2026-05-06 23:21 -58.92307 -63.65457 38944 ft 459 kts 151°
2026-05-06 23:22 -58.97755 -63.58927 38954 ft 459 kts 151°
2026-05-06 23:22 -59.03158 -63.52428 38956 ft 459 kts 151°
2026-05-06 23:23 -59.08591 -63.45867 38949 ft 459 kts 151°
2026-05-06 23:23 -59.14010 -63.39300 38951 ft 459 kts 151°
2026-05-06 23:24 -59.19430 -63.32705 38971 ft 458 kts 151°
2026-05-06 23:24 -59.24816 -63.26127 38965 ft 458 kts 151°
2026-05-06 23:25 -59.30226 -63.19495 38972 ft 458 kts 151°
2026-05-06 23:25 -59.35633 -63.12842 38981 ft 458 kts 150°
2026-05-06 23:26 -59.41006 -63.06205 38988 ft 459 kts 150°
2026-05-06 23:26 -59.46419 -62.99493 38992 ft 459 kts 150°
2026-05-06 23:27 -59.51825 -62.92764 38995 ft 459 kts 150°
2026-05-06 23:27 -59.57224 -62.86018 38993 ft 459 kts 150°
2026-05-06 23:28 -59.62580 -62.79299 38998 ft 458 kts 150°
2026-05-06 23:28 -59.67937 -62.72554 39020 ft 458 kts 150°
2026-05-06 23:29 -59.73355 -62.65705 39002 ft 458 kts 150°
2026-05-06 23:29 -59.78707 -62.58914 39005 ft 458 kts 150°
2026-05-06 23:30 -59.84056 -62.52100 39001 ft 458 kts 150°
2026-05-06 23:30 -59.89413 -62.45248 39006 ft 457 kts 150°
2026-05-06 23:31 -59.94764 -62.38379 39009 ft 457 kts 150°
2026-05-06 23:31 -60.00088 -62.31518 39008 ft 458 kts 150°
2026-05-06 23:32 -60.05448 -62.24583 39009 ft 457 kts 150°
2026-05-06 23:32 -60.10794 -62.17639 39015 ft 457 kts 150°
2026-05-06 23:33 -60.16138 -62.10669 39009 ft 457 kts 150°
2026-05-06 23:33 -60.21443 -62.03725 39005 ft 458 kts 150°
2026-05-06 23:34 -60.26795 -61.96691 39010 ft 458 kts 150°
2026-05-06 23:34 -60.32126 -61.89656 39018 ft 458 kts 149°
2026-05-06 23:35 -60.37432 -61.82627 39014 ft 458 kts 149°
2026-05-06 23:35 -60.42767 -61.75530 39035 ft 458 kts 149°
2026-05-06 23:36 -60.48105 -61.68402 39024 ft 459 kts 149°
2026-05-06 23:36 -60.53405 -61.61297 39027 ft 459 kts 149°
2026-05-06 23:37 -60.58728 -61.54132 39030 ft 459 kts 149°
2026-05-06 23:37 -60.64048 -61.46942 39029 ft 459 kts 149°
2026-05-06 23:38 -60.69339 -61.39762 39033 ft 459 kts 149°
2026-05-06 23:38 -60.74667 -61.32504 39031 ft 460 kts 149°
2026-05-06 23:39 -60.79989 -61.25223 39029 ft 460 kts 149°
2026-05-06 23:39 -60.85313 -61.17910 39006 ft 458 kts 149°
2026-05-06 23:39 -60.87956 -61.14268 38705 ft 457 kts 149°
2026-05-06 23:40 -60.90574 -61.10655 37968 ft 460 kts 149°
2026-05-06 23:40 -60.93243 -61.06966 37049 ft 465 kts 149°
2026-05-06 23:40 -60.95948 -61.03223 36008 ft 472 kts 149°
2026-05-06 23:40 -60.98698 -60.99413 35034 ft 478 kts 148°
2026-05-06 23:41 -61.01462 -60.95574 34187 ft 480 kts 148°
2026-05-06 23:41 -61.04242 -60.91703 33235 ft 482 kts 148°
2026-05-06 23:41 -61.07034 -60.87807 32283 ft 483 kts 148°
2026-05-06 23:41 -61.09812 -60.83924 31326 ft 485 kts 148°
2026-05-06 23:42 -61.12566 -60.80066 30719 ft 479 kts 148°
2026-05-06 23:42 -61.15315 -60.76204 30133 ft 474 kts 148°
2026-05-06 23:42 -61.18028 -60.72386 29498 ft 468 kts 148°
2026-05-06 23:42 -61.20640 -60.68401 28906 ft 463 kts 143°
2026-05-06 23:43 -61.23073 -60.64024 28316 ft 459 kts 138°
2026-05-06 23:43 -61.25407 -60.59541 27738 ft 453 kts 140°
2026-05-06 23:43 -61.27717 -60.55235 27167 ft 448 kts 140°
2026-05-06 23:43 -61.30032 -60.50941 26594 ft 443 kts 140°
2026-05-06 23:44 -61.32323 -60.46667 26023 ft 439 kts 140°
2026-05-06 23:44 -61.34558 -60.42472 25467 ft 435 kts 140°
2026-05-06 23:44 -61.36806 -60.38232 24899 ft 432 kts 139°
2026-05-06 23:44 -61.39028 -60.34024 24340 ft 429 kts 139°
2026-05-06 23:45 -61.41228 -60.29850 23780 ft 427 kts 139°
2026-05-06 23:45 -61.43427 -60.25666 23128 ft 424 kts 139°
2026-05-06 23:45 -61.45598 -60.21528 22517 ft 420 kts 139°
2026-05-06 23:45 -61.47724 -60.17468 21901 ft 417 kts 139°
2026-05-06 23:46 -61.49867 -60.13369 21292 ft 414 kts 139°
2026-05-06 23:46 -61.51990 -60.09300 20679 ft 411 kts 139°
2026-05-06 23:46 -61.54094 -60.05259 20070 ft 409 kts 139°
2026-05-06 23:46 -61.56192 -60.01222 19461 ft 407 kts 139°
2026-05-06 23:47 -61.58246 -59.97267 18861 ft 405 kts 138°
2026-05-06 23:47 -61.60330 -59.93247 18225 ft 403 kts 138°
2026-05-06 23:47 -61.62381 -59.89280 17589 ft 399 kts 138°
2026-05-06 23:47 -61.64413 -59.85336 17040 ft 394 kts 139°
2026-05-06 23:48 -61.66424 -59.81425 16472 ft 390 kts 139°
2026-05-06 23:48 -61.68379 -59.77614 15921 ft 386 kts 139°
2026-05-06 23:48 -61.70350 -59.73769 15360 ft 383 kts 139°
2026-05-06 23:48 -61.72298 -59.69961 14813 ft 380 kts 139°
2026-05-06 23:49 -61.74231 -59.66177 14206 ft 378 kts 139°
2026-05-06 23:49 -61.76162 -59.62391 13530 ft 378 kts 139°
2026-05-06 23:49 -61.78074 -59.58637 12785 ft 378 kts 139°
2026-05-06 23:49 -61.79995 -59.54856 12160 ft 375 kts 139°
2026-05-06 23:50 -61.81880 -59.51139 11876 ft 363 kts 139°
2026-05-06 23:50 -61.85444 -59.44088 11187 ft 346 kts 139°
2026-05-06 23:50 -61.87200 -59.40609 10721 ft 342 kts 139°
2026-05-06 23:51 -61.88915 -59.37206 10332 ft 336 kts 139°
2026-05-06 23:51 -61.90592 -59.33867 10191 ft 323 kts 139°
2026-05-06 23:51 -61.92193 -59.30675 10062 ft 309 kts 139°
2026-05-06 23:51 -61.93734 -59.27599 9935 ft 296 kts 139°
2026-05-06 23:52 -61.95200 -59.24672 9619 ft 291 kts 140°
2026-05-06 23:52 -61.96670 -59.21737 9233 ft 288 kts 139°
2026-05-06 23:52 -61.98111 -59.18858 8850 ft 285 kts 139°
2026-05-06 23:52 -61.99552 -59.15971 8468 ft 282 kts 139°
2026-05-06 23:53 -62.00980 -59.13107 8097 ft 279 kts 139°
2026-05-06 23:53 -62.02380 -59.10292 7710 ft 276 kts 139°
2026-05-06 23:53 -62.03754 -59.07527 7363 ft 273 kts 139°
2026-05-06 23:53 -62.05128 -59.04759 6994 ft 270 kts 139°
2026-05-06 23:54 -62.06494 -59.02003 6603 ft 269 kts 139°
2026-05-06 23:54 -62.07874 -58.99219 5916 ft 278 kts 139°
2026-05-06 23:54 -62.09309 -58.96324 5131 ft 288 kts 139°
2026-05-06 23:54 -62.10747 -58.93408 4899 ft 278 kts 139°
2026-05-06 23:55 -62.12103 -58.90641 4764 ft 266 kts 140°
2026-05-06 23:55 -62.13426 -58.87943 4452 ft 262 kts 140°
2026-05-06 23:55 -62.14725 -58.85295 4242 ft 254 kts 140°
2026-05-06 23:55 -62.16015 -58.82672 4100 ft 260 kts 141°
2026-05-06 23:56 -62.17326 -58.80009 4006 ft 256 kts 141°
2026-05-06 23:56 -62.18169 -58.78285 3954 ft 250 kts 140°
2026-05-06 23:56 -62.19398 -58.75765 3855 ft 240 kts 141°
2026-05-06 23:56 -62.20575 -58.73352 3753 ft 229 kts 141°
2026-05-06 23:57 -62.21717 -58.71014 3581 ft 222 kts 141°
2026-05-06 23:57 -62.22852 -58.68696 3525 ft 227 kts 141°
2026-05-06 23:57 -62.24088 -58.66732 3429 ft 217 kts 163°
2026-05-06 23:57 -62.25534 -58.66420 3094 ft 209 kts 196°
2026-05-06 23:58 -62.26768 -58.67927 2716 ft 205 kts 229°
2026-05-06 23:58 -62.27338 -58.70691 2381 ft 207 kts 264°
2026-05-06 23:58 -62.27034 -58.73701 2056 ft 213 kts 297°
2026-05-06 23:58 -62.25939 -58.75819 1908 ft 213 kts 328°
2026-05-06 23:59 -62.24647 -58.77127 1848 ft 191 kts 328°
2026-05-06 23:59 -62.23615 -58.78502 1748 ft 160 kts 311°
2026-05-06 23:59 -62.23023 -58.80239 1631 ft 136 kts 291°
2026-05-06 23:59 -62.22650 -58.82082 1503 ft 134 kts 288°
2026-05-07 00:00 -62.22296 -58.83888 1326 ft 128 kts 291°
2026-05-07 00:00 -62.21910 -58.85604 1030 ft 130 kts 290°
2026-05-07 00:00 -62.21546 -58.87408 843 ft 131 kts 289°
2026-05-07 00:00 -62.21179 -58.89209 730 ft 133 kts 291°
2026-05-07 00:01 -62.20789 -58.91008 671 ft 134 kts 290°
2026-05-07 00:01 -62.20441 -58.92841 629 ft 133 kts 290°
2026-05-07 00:01 -62.20060 -58.94653 462 ft 133 kts 295°
2026-05-07 00:01 -62.19625 -58.96388 268 ft 132 kts 294°
2026-05-07 00:02 -62.19223 -58.98142 158 ft 115 kts 294°
2026-05-07 00:02 -62.18995 -58.99088 158 ft 32 kts 299°
2026-05-07 00:02 -62.18919 -58.99336 159 ft 0 kts 260°
2026-05-07 00:02 -62.18933 -58.99368 159 ft 0 kts 212°
2026-05-07 00:03 -62.18936 -58.99366 159 ft 1 kts 182°
2026-05-07 00:03 -62.18949 -58.99309 159 ft 10 kts 104°
2026-05-07 00:03 -62.18989 -58.99080 158 ft 23 kts 115°
2026-05-07 00:03 -62.19062 -58.98758 151 ft 23 kts 116°
2026-05-07 00:04 -62.19129 -58.98475 153 ft 17 kts 117°
2026-05-07 00:04 -62.19198 -58.98329 154 ft 11 kts 153°
2026-05-07 00:04 -62.19252 -58.98276 154 ft 7 kts 155°
2026-05-07 00:04 -62.19283 -58.98250 154 ft 1 kts 178°
2026-05-07 00:05 -62.19284 -58.98252 154 ft 0 kts 191°
2026-05-07 00:05 -62.19286 -58.98264 154 ft 1 kts 241°
2026-05-07 00:05 -62.19278 -58.98276 154 ft 1 kts 343°
2026-05-07 00:18 -62.19274 -58.98278 153 ft 1 kts 345°
2026-05-07 00:18 -62.19272 -58.98279 153 ft 0 kts 345°